Regional Weather Roundup
Issued by NWS Sioux Falls, SD

Home | Current Version | Previous Version | Graphics & Text | Print | Product List | Glossary Off
Versions: 1 2 3 4 5 6 7 8 9 10 11 12 13 14 15 16 17 18 19 20 21 22 23 24 25 26 27 28 29 30 31 32 33 34 35 36 37 38 39 40 41 42 43 44 45 46 47 48 49 50

000
ASUS43 KFSD 212310
RWRFSD

WEATHER ROUNDUP FOR SE SOUTH DAKOTA/SW MINNESOTA/NW IOWA
NATIONAL WEATHER SERVICE SIOUX FALLS SD
600 PM CDT MON MAY 21 2018

NOTE: "FAIR" INDICATES FEW OR NO CLOUDS BELOW 12,000 FEET WITH NO
SIGNIFICANT WEATHER AND OR OBSTRUCTIONS TO VISIBILITY.


SDZ038>040-050-052>070-220000-
SOUTHEAST SOUTH DAKOTA

CITY           SKY/WX    TMP DP  RH WIND       PRES   REMARKS
BROOKINGS      CLOUDY    62  56  80 S7        29.99S
CHAMBERLAIN    SUNNY     76  52  43 S5        29.93S
HURON          SUNNY     70  56  61 MISG      29.94F
MADISON        CLOUDY    63  63 100 S3        29.99S
MITCHELL       MOSUNNY   72  59  63 MISG      29.95S
SIOUX FALLS    CLOUDY    64  58  80 CALM      29.98S
WINNER         FAIR      76  52  43 SE6       29.92F
YANKTON        SUNNY     71  57  61 SE5       29.96F
$$

MNZ071-072-080-081-089-090-097-098-220000-
SOUTHWEST MINNESOTA

CITY           SKY/WX    TMP DP  RH WIND       PRES   REMARKS
FAIRMONT       LGT RAIN  63  57  82 CALM      29.99F FOG
JACKSON        CLOUDY    61  55  82 CALM      30.00F
LUVERNE        CLOUDY    63  54  72 CALM      29.99S
MARSHALL       CLOUDY    63  58  83 SE3       30.00S
MONTEVIDEO     CLOUDY    63  59  88 SE8       29.99F
PIPESTONE      PTSUNNY   63  57  82 SE3       29.99F
REDWOOD FALLS  LGT RAIN  60  59  96 E3        29.99S FOG
TRACY          LGT RAIN  62  60  93 SE3       30.00R
WINDOM         DRIZZLE   61  45  55 CALM      29.99S
WORTHINGTON    CLOUDY    61  58  90 CALM      30.00F
$$

IAZ001>003-012>014-020>022-031-032-NEZ013-014-SDZ071-220000-
NORTHWEST IOWA

CITY           SKY/WX    TMP DP  RH WIND       PRES   REMARKS
CHEROKEE       CLOUDY    66  61  83 CALM      29.98S
DENISON        PTSUNNY   68  57  68 W6        30.00F
ESTHERVILLE    CLOUDY    61  59  93 CALM      29.99S
ORANGE CITY    CLOUDY    66  59  77 SW7       29.99S
SHELDON        CLOUDY    64  61  88 CALM      29.97F
SIOUX CITY     SUNNY     71  57  61 NE3       29.96F
SPENCER        CLOUDY    67  59  75 CALM      29.99S
STORM LAKE     PTSUNNY   66  59  77 SW6       29.99S
$$

ABBREVIATIONS USED IN REMARKS
   TC - TEMPERATURE IN CELSIUS
  WCI - WIND CHILL INDEX
   HX - HEAT INDEX
  VSB - VISIBILITY




USA.gov is the U.S. government's official web portal to all federal, state and local government web resources and services.